Weather History for Dickinson, ND

Change the Weather History Date:

Sunday, November 4, 2012

  Actual Average Record
Temperature  
Mean Temperature 41 °F 35 °F  
Max Temperature 51 °F 47 °F 74 °F (1975)
Min Temperature 30 °F 24 °F -7 °F (1935)
Degree Days  
Heating Degree Days 24 30  
Month to date heating degree days 115 116  
Since 1 July heating degree days 1052 1127  
Cooling Degree Days 0 0  
Month to date cooling degree days 0 0  
Year to date cooling degree days 591 419  
Moisture  
Dew Point 34 °F    
Average Humidity 88    
Maximum Humidity 100    
Minimum Humidity 76    
Precipitation  
Precipitation 0.08 in 0.03 in 0.55 in (1948)
Month to date precipitation 0.13 0.10  
Year to date precipitation 10.06 15.09  
Sea Level Pressure  
Sea Level Pressure 30.12 in    
Wind  
Wind Speed 13 mph (SW)    
Max Wind Speed 23 mph    
Max Gust Speed 28 mph    
Visibility 6 miles    
Events Fog , Rain    
T = Trace of Precipitation, MM = Missing Value Source: NWS Daily Summary

Daily Weather History Graph

Daily Weather History Graph

Search for Another Location

Airport:

Trip Planner

Search our weather history database for the weather conditions in past years. The results will help you decide how hot, cold, wet, or windy it might be!

Date:

Astronomy

Nov. 04, 2012 Rise Set
Actual Time 6:38 AM MST 4:30 PM MST
Civil Twilight 6:06 AM MST 5:02 PM MST
Nautical Twilight 5:30 AM MST 5:38 PM MST
Astronomical Twilight 4:55 AM MST 6:13 PM MST
Moon 9:07 PM MST (11/4) 11:27 AM MST (11/4)
Length of Visible Light 10h 55m
Length of Day
9h 51m
Waning Gibbous, 71% of the Moon is Illuminated
Nov 4
Waning Gibbous
Nov 6
Last Quarter
Nov 13
New
Nov 20
First Quarter
Nov 28
Full

Hourly Weather History & Observations

Time (MST) Temp. Windchill Dew Point Humidity Pressure Visibility Wind Dir Wind Speed Gust Speed Precip Events Conditions
12:12 AM 30.2 °F 21.3 °F 28.4 °F 93% 30.10 in 2.5 mi SE 10.4 mph - N/A   Overcast
12:28 AM 30.2 °F 20.8 °F 28.4 °F 93% 30.10 in 1.8 mi SSE 11.5 mph - N/A   Overcast
12:56 AM 30.0 °F 21.1 °F 28.9 °F 96% 30.17 in 1.2 mi SE 10.4 mph - N/A   Overcast
1:56 AM 30.0 °F 21.1 °F 28.9 °F 96% 30.15 in 1.0 mi SSE 10.4 mph - N/A   Overcast
1:21 AM 30.2 °F 20.8 °F 30.2 °F 100% 30.07 in 0.8 mi SE 11.5 mph - N/A   Mist
1:56 AM 30.0 °F 21.1 °F 30.0 °F 100% 30.14 in 0.8 mi SSE 10.4 mph - N/A   Mist
2:56 AM 30.9 °F 21.7 °F 30.0 °F 96% 30.12 in 0.5 mi South 11.5 mph - N/A Fog Light Freezing Fog
3:56 AM 30.9 °F 22.2 °F 30.9 °F 100% 30.11 in 0.8 mi SSE 10.4 mph - N/A   Mist
4:31 AM 30.2 °F 22.6 °F 30.2 °F 100% 30.04 in 0.8 mi SSE 8.1 mph - 0.00 in Rain Light Freezing Rain
4:47 AM 30.2 °F 22.6 °F 30.2 °F 100% 30.04 in 0.8 mi South 8.1 mph - 0.00 in   Mist
5:15 AM 32.0 °F 24.2 °F 30.2 °F 93% 30.04 in 2.0 mi SSE 9.2 mph - 0.01 in Rain Light Freezing Rain
5:56 AM 32.0 °F 23.6 °F 32.0 °F 100% 30.11 in 3.0 mi South 10.4 mph - 0.05 in Rain Light Freezing Rain
6:24 AM 32.0 °F 23.0 °F 32.0 °F 100% 30.00 in 5.0 mi South 11.5 mph - 0.01 in Rain Light Freezing Rain
6:43 AM 32.0 °F 22.5 °F 32.0 °F 100% 30.00 in 7.0 mi South 12.7 mph - 0.01 in   Overcast
6:56 AM 33.1 °F 23.9 °F 32.0 °F 96% 30.08 in 9.0 mi South 12.7 mph - 0.01 in   Overcast
7:03 AM 33.8 °F 24.3 °F 32.0 °F 93% 30.00 in 8.0 mi South 13.8 mph - N/A   Overcast
7:56 AM 33.1 °F 23.9 °F 32.0 °F 96% 30.09 in 7.0 mi South 12.7 mph - N/A   Overcast
8:56 AM 35.1 °F 25.5 °F 33.1 °F 92% 30.07 in 6.0 mi South 15.0 mph - N/A   Overcast
9:56 AM 37.9 °F 30.9 °F 36.0 °F 93% 30.07 in 7.0 mi SSW 10.4 mph - 0.00 in Rain Light Rain
10:56 AM 41.0 °F 35.8 °F 39.0 °F 93% 30.06 in 10.0 mi SSW 8.1 mph - 0.00 in   Mostly Cloudy
11:56 AM 48.9 °F - 42.1 °F 77% 30.04 in 10.0 mi WNW 17.3 mph 23.0 mph 0.01 in   Scattered Clouds
12:48 PM 48.2 °F - 41.0 °F 76% 30.00 in 10.0 mi NW 16.1 mph - N/A   Mostly Cloudy
12:56 PM 48.9 °F - 41.0 °F 74% 30.05 in 10.0 mi NW 15.0 mph - N/A   Mostly Cloudy
1:56 PM 48.9 °F - 41.0 °F 74% 30.07 in 10.0 mi NNW 16.1 mph - N/A   Overcast
2:56 PM 46.0 °F 39.6 °F 39.9 °F 79% 30.11 in 10.0 mi NNW 15.0 mph - N/A   Overcast
3:23 PM 44.6 °F 38.1 °F 39.2 °F 81% 30.08 in 10.0 mi North 13.8 mph - N/A   Overcast
3:56 PM 42.1 °F 34.2 °F 37.9 °F 85% 30.16 in 10.0 mi NNW 16.1 mph 24.2 mph N/A   Overcast
4:19 PM 41.0 °F 32.8 °F 37.4 °F 87% 30.11 in 8.0 mi NNW 16.1 mph 24.2 mph N/A   Overcast
4:56 PM 39.0 °F 29.3 °F 36.0 °F 89% 30.21 in 9.0 mi NNW 19.6 mph 25.3 mph N/A   Overcast
5:56 PM 37.9 °F 29.6 °F 36.0 °F 93% 30.23 in 7.0 mi NNW 13.8 mph 23.0 mph N/A   Overcast
6:35 PM 37.4 °F 29.3 °F 35.6 °F 93% 30.16 in 5.0 mi NNW 12.7 mph 21.9 mph 0.00 in Rain Light Rain
6:48 PM 37.4 °F 29.8 °F 35.6 °F 93% 30.17 in 10.0 mi NNW 11.5 mph - 0.00 in   Overcast
6:56 PM 37.0 °F 28.9 °F 35.1 °F 93% 30.25 in 10.0 mi NNW 12.7 mph - 0.00 in   Overcast
7:19 PM 37.4 °F 30.3 °F 35.6 °F 93% 30.18 in 6.0 mi NNW 10.4 mph - N/A   Overcast
7:56 PM 37.0 °F 28.5 °F 36.0 °F 96% 30.26 in 9.0 mi NW 13.8 mph - N/A   Overcast
8:56 PM 36.0 °F 27.1 °F 34.0 °F 93% 30.26 in 10.0 mi NW 13.8 mph - N/A   Overcast
9:56 PM 36.0 °F 28.5 °F 35.1 °F 97% 30.25 in 10.0 mi NNW 10.4 mph - N/A   Overcast
10:56 PM 35.1 °F 27.9 °F 34.0 °F 96% 30.25 in 10.0 mi NNW 9.2 mph - N/A   Overcast